Location: Unspecified
(0.0000°N, 0.0000°E)
Time: 11:32:02
(UTC+00:00)

Vanguard 1 Rocket - Pass Details

Date: 22 November 2019
Orbit: 650 x 4226 km, 34.3° (Epoch: 07 December)

Event Time Altitude Azimuth Distance (km) Brightness Sun altitude
Rises 07:56:50 0° 335° (NNW) 3,735 10.2 30.5°
Reaches altitude 10° 07:59:33 10° 349° (N) 3,104 9.9 31.1°
Maximum altitude 08:06:02 26° 45° (NE) 2,844 10.4 32.6°
Drops below altitude 10° 08:16:39 10° 96° (E) 5,246 12.5 35.0°
Sets 08:23:02 0° 106° (ESE) 6,943 12.9 36.5°
